,,,PA_Meas_PMT16A,,PR_Meas_QMR101_102,,RH_Meas_QMH101,,SR_Meas_QMS101,,TA_Meas_QMH101,,GenWind,,GenWind,
date,time,status,PA,status,PR,status,RH,status,SR,status,TA,status,DirAvg,status,SpdAvg,
2012-02-22, 00:00:04,VALID,1000.55,VALID,0,VALID,93.3026,VALID,0,VALID,23.7597,VALID,94,VALID,0,
2012-02-22, 00:01:04,VALID,1000.62,VALID,0,VALID,93.3255,VALID,0,VALID,23.7384,VALID,94,VALID,0,
2012-02-22, 00:02:04,VALID,1000.63,VALID,0,VALID,93.356,VALID,0,VALID,23.7384,VALID,94,VALID,0,
2012-02-22, 00:03:04,VALID,1000.61,VALID,0,VALID,93.3484,VALID,0,VALID,23.7189,VALID,94,VALID,0,
2012-02-22, 00:04:04,VALID,1000.57,VALID,0,VALID,93.3713,VALID,0,VALID,23.7189,VALID,102,VALID,0.879687,
2012-02-22, 00:05:04,VALID,1000.55,VALID,0,VALID,93.4094,VALID,0,VALID,23.7189,VALID,105,VALID,0.570313,
2012-02-22, 00:06:04,VALID,1000.51,VALID,0,VALID,93.4323,VALID,0,VALID,23.7207,VALID,105,VALID,0.468359,
2012-02-22, 00:07:04,VALID,1000.45,VALID,0,VALID,93.44,VALID,0,VALID,23.7402,VALID,105,VALID,0.311328,
2012-02-22, 00:08:04,VALID,1000.32,VALID,0,VALID,93.4705,VALID,0,VALID,23.6994,VALID,105,VALID,0.206641,
2012-02-22, 00:09:04,VALID,1000.28,VALID,0,VALID,93.4781,VALID,0,VALID,23.6994,VALID,105,VALID,0.239063,
2012-02-22, 00:10:04,VALID,1000.2,VALID,0,VALID,93.4934,VALID,0,VALID,23.7189,VALID,105,VALID,0.352734,
2012-02-22, 00:11:04,VALID,1000.15,VALID,0,VALID,93.5391,VALID,0,VALID,23.7189,VALID,105,VALID,0.301953,
2012-02-22, 00:12:04,VALID,1000.09,VALID,0,VALID,93.5697,VALID,0,VALID,23.7384,VALID,105,VALID,0.450781,
2012-02-22, 00:13:04,VALID,1000.05,VALID,0,VALID,93.5926,VALID,0,VALID,23.7189,VALID,157,VALID,0.586328,
2012-02-22, 00:14:04,VALID,1000.04,VALID,0,VALID,93.5926,VALID,0,VALID,23.7189,VALID,157,VALID,0.640625,
2012-02-22, 00:15:04,VALID,1000.01,VALID,0,VALID,93.5468,VALID,0,VALID,23.7189,VALID,157,VALID,0.561719,
2012-02-22, 00:16:04,VALID,999.977,VALID,0,VALID,93.4934,VALID,0,VALID,23.7402,VALID,157,VALID,0.201172,
2012-02-22, 00:17:04,VALID,999.971,VALID,0,VALID,93.4705,VALID,0,VALID,23.7597,VALID,157,VALID,0,
2012-02-22, 00:18:04,VALID,999.987,VALID,0,VALID,93.4171,VALID,0,VALID,23.7189,VALID,157,VALID,0,
2012-02-22, 00:19:04,VALID,999.995,VALID,0,VALID,93.3789,VALID,0,VALID,23.6994,VALID,157,VALID,0,
2012-02-22, 00:20:04,VALID,999.998,VALID,0,VALID,93.3637,VALID,0.104696,VALID,23.7189,VALID,157,VALID,0,
2012-02-22, 00:21:04,VALID,1000.02,VALID,0,VALID,93.3255,VALID,0,VALID,23.6994,VALID,157,VALID,0,
2012-02-22, 00:22:04,VALID,1000.05,VALID,0,VALID,93.3331,VALID,0,VALID,23.6994,VALID,157,VALID,0,
2012-02-22, 00:23:04,VALID,1000.04,VALID,0,VALID,93.2874,VALID,0,VALID,23.7207,VALID,157,VALID,0,
2012-02-22, 00:24:04,VALID,1000.05,VALID,0,VALID,93.2568,VALID,0,VALID,23.6994,VALID,157,VALID,0,
2012-02-22, 00:25:04,VALID,1000.04,VALID,0,VALID,93.1958,VALID,0,VALID,23.7012,VALID,142,VALID,0.801172,
2012-02-22, 00:26:04,VALID,1000.01,VALID,0,VALID,93.1577,VALID,0,VALID,23.7207,VALID,142,VALID,0.807422,
2012-02-22, 00:27:04,VALID,1000.02,VALID,0,VALID,93.089,VALID,0,VALID,23.7012,VALID,138,VALID,0.913281,
2012-02-22, 00:28:04,VALID,1000,VALID,0,VALID,93.0661,VALID,0,VALID,23.7012,VALID,134,VALID,0.864062,
2012-02-22, 00:29:04,VALID,999.982,VALID,0,VALID,93.0585,VALID,0,VALID,23.6604,VALID,134,VALID,1.00898,
2012-02-22, 00:30:04,VALID,999.951,VALID,0,VALID,93.0661,VALID,0,VALID,23.6604,VALID,130,VALID,1.05742,
2012-02-22, 00:31:04,VALID,999.934,VALID,0,VALID,93.0966,VALID,0,VALID,23.6817,VALID,130,VALID,0.929688,
2012-02-22, 00:32:04,VALID,999.926,VALID,0,VALID,93.1271,VALID,0,VALID,23.6799,VALID,129,VALID,0.837891,
2012-02-22, 00:33:04,VALID,999.927,VALID,0,VALID,93.1805,VALID,0,VALID,23.6604,VALID,127,VALID,0.738281,
2012-02-22, 00:34:04,VALID,999.872,VALID,0,VALID,93.2111,VALID,0.104696,VALID,23.6604,VALID,127,VALID,0.444922,
2012-02-22, 00:35:04,VALID,999.887,VALID,0,VALID,93.2187,VALID,0,VALID,23.6817,VALID,126,VALID,0.575781,
2012-02-22, 00:36:04,VALID,999.847,VALID,0,VALID,93.1729,VALID,0.104696,VALID,23.6817,VALID,115,VALID,0.791797,
2012-02-22, 00:37:04,VALID,999.846,VALID,0,VALID,93.0966,VALID,0,VALID,23.6622,VALID,110,VALID,0.766016,
2012-02-22, 00:38:04,VALID,999.827,VALID,0,VALID,93.0508,VALID,0,VALID,23.6409,VALID,110,VALID,0.535547,
2012-02-22, 00:39:04,VALID,999.807,VALID,0,VALID,93.0127,VALID,0,VALID,23.6214,VALID,110,VALID,0.241016,
2012-02-22, 00:40:04,VALID,999.819,VALID,0,VALID,93.0051,VALID,0,VALID,23.6232,VALID,95,VALID,0.734766,
2012-02-22, 00:41:04,VALID,999.802,VALID,0,VALID,93.0127,VALID,0,VALID,23.6232,VALID,95,VALID,0.369531,
2012-02-22, 00:42:04,VALID,999.798,VALID,0,VALID,93.0127,VALID,0,VALID,23.6019,VALID,95,VALID,0.199219,
2012-02-22, 00:43:04,VALID,999.812,VALID,0,VALID,93.028,VALID,0,VALID,23.6019,VALID,95,VALID,0.0898438,
2012-02-22, 00:44:04,VALID,999.838,VALID,0,VALID,93.0508,VALID,0,VALID,23.6019,VALID,95,VALID,0.383203,
2012-02-22, 00:45:04,VALID,999.781,VALID,0,VALID,93.0356,VALID,0,VALID,23.5823,VALID,95,VALID,0.324609,
2012-02-22, 00:46:04,VALID,999.777,VALID,0,VALID,92.9898,VALID,0,VALID,23.5628,VALID,95,VALID,0.421875,
2012-02-22, 00:47:04,VALID,999.785,VALID,0,VALID,92.9517,VALID,0,VALID,23.5628,VALID,95,VALID,0.396875,
2012-02-22, 00:48:04,VALID,999.744,VALID,0,VALID,92.9059,VALID,0,VALID,23.5841,VALID,95,VALID,0.276172,
2012-02-22, 00:49:04,VALID,999.741,VALID,0,VALID,92.8983,VALID,0,VALID,23.5433,VALID,95,VALID,0,
2012-02-22, 00:50:04,VALID,999.751,VALID,0,VALID,92.8601,VALID,0,VALID,23.5238,VALID,95,VALID,0,
2012-02-22, 00:51:04,VALID,999.767,VALID,0,VALID,92.8906,VALID,0,VALID,23.5256,VALID,95,VALID,0.0105469,
2012-02-22, 00:52:04,VALID,999.761,VALID,0,VALID,92.8525,VALID,0,VALID,23.5043,VALID,95,VALID,0.611719,
2012-02-22, 00:53:04,VALID,999.781,VALID,0,VALID,92.8601,VALID,0.104696,VALID,23.5043,VALID,87,VALID,0.70625,
2012-02-22, 00:54:04,VALID,999.794,VALID,0,VALID,92.8448,VALID,0,VALID,23.5043,VALID,87,VALID,0.755859,
2012-02-22, 00:55:04,VALID,999.756,VALID,0,VALID,92.8296,VALID,0,VALID,23.5043,VALID,87,VALID,0.790234,
2012-02-22, 00:56:04,VALID,999.735,VALID,0,VALID,92.8296,VALID,0,VALID,23.5061,VALID,87,VALID,0.589844,
2012-02-22, 00:57:04,VALID,999.694,VALID,0,VALID,92.7991,VALID,0,VALID,23.5061,VALID,87,VALID,0.231641,
2012-02-22, 00:58:04,VALID,999.675,VALID,0,VALID,92.7914,VALID,0,VALID,23.5061,VALID,87,VALID,0,
2012-02-22, 00:59:04,VALID,999.655,VALID,0,VALID,92.7609,VALID,0,VALID,23.4848,VALID,87,VALID,0,
2012-02-22, 01:00:04,VALID,999.633,VALID,0,VALID,92.7609,VALID,0,VALID,23.4848,VALID,87,VALID,0.0015625,
2012-02-22, 01:01:04,VALID,999.666,VALID,0,VALID,92.7762,VALID,0,VALID,23.4848,VALID,87,VALID,0.373437,
2012-02-22, 01:02:04,VALID,999.646,VALID,0,VALID,92.8067,VALID,0,VALID,23.4848,VALID,87,VALID,0.498828,
2012-02-22, 01:03:04,VALID,999.675,VALID,0,VALID,92.7914,VALID,0,VALID,23.4848,VALID,87,VALID,0.503906,
2012-02-22, 01:04:04,VALID,999.662,VALID,0,VALID,92.7609,VALID,0,VALID,23.5061,VALID,87,VALID,0.614453,
2012-02-22, 01:05:04,VALID,999.673,VALID,0,VALID,92.7304,VALID,0,VALID,23.5256,VALID,87,VALID,0.458984,
2012-02-22, 01:06:04,VALID,999.69,VALID,0,VALID,92.6999,VALID,0,VALID,23.5061,VALID,87,VALID,0,
2012-02-22, 01:07:04,VALID,999.656,VALID,0,VALID,92.6923,VALID,0.104696,VALID,23.5061,VALID,89,VALID,0,
2012-02-22, 01:08:04,VALID,999.623,VALID,0,VALID,92.7228,VALID,0,VALID,23.4653,VALID,89,VALID,0,
2012-02-22, 01:09:04,VALID,999.61,VALID,0,VALID,92.7151,VALID,0,VALID,23.4653,VALID,103,VALID,0,
2012-02-22, 01:10:04,VALID,999.589,VALID,0,VALID,92.6846,VALID,0,VALID,23.4848,VALID,125,VALID,0,
2012-02-22, 01:11:04,VALID,999.518,VALID,0,VALID,92.7228,VALID,0.104696,VALID,23.4848,VALID,132,VALID,0,
2012-02-22, 01:12:04,VALID,999.467,VALID,0,VALID,92.6999,VALID,0,VALID,23.5061,VALID,136,VALID,0,
2012-02-22, 01:13:04,VALID,999.473,VALID,0,VALID,92.7151,VALID,0,VALID,23.4866,VALID,137,VALID,0,
2012-02-22, 01:14:04,VALID,999.412,VALID,0,VALID,92.6999,VALID,0,VALID,23.4848,VALID,137,VALID,0,
2012-02-22, 01:15:04,VALID,999.378,VALID,0,VALID,92.7151,VALID,0,VALID,23.4848,VALID,137,VALID,0,
2012-02-22, 01:16:04,VALID,999.39,VALID,0,VALID,92.7457,VALID,0,VALID,23.4848,VALID,177,VALID,0,
2012-02-22, 01:17:04,VALID,999.374,VALID,0,VALID,92.7533,VALID,0,VALID,23.4848,VALID,177,VALID,0,
2012-02-22, 01:18:04,VALID,999.333,VALID,0,VALID,92.7533,VALID,0,VALID,23.4848,VALID,177,VALID,0,
2012-02-22, 01:19:04,VALID,999.35,VALID,0,VALID,92.7914,VALID,0,VALID,23.5061,VALID,177,VALID,0,
2012-02-22, 01:20:04,VALID,999.354,VALID,0,VALID,92.7685,VALID,0,VALID,23.4848,VALID,177,VALID,0,
2012-02-22, 01:21:04,VALID,999.337,VALID,0,VALID,92.7685,VALID,0,VALID,23.5061,VALID,177,VALID,0,
2012-02-22, 01:22:04,VALID,999.361,VALID,0,VALID,92.7914,VALID,0,VALID,23.5061,VALID,177,VALID,0,
2012-02-22, 01:23:04,VALID,999.346,VALID,0,VALID,92.7762,VALID,0,VALID,23.4848,VALID,144,VALID,0,
2012-02-22, 01:24:04,VALID,999.386,VALID,0,VALID,92.7533,VALID,0,VALID,23.4848,VALID,143,VALID,0,
2012-02-22, 01:25:04,VALID,999.366,VALID,0,VALID,92.7228,VALID,0,VALID,23.4848,VALID,127,VALID,0,
2012-02-22, 01:26:04,VALID,999.363,VALID,0,VALID,92.7151,VALID,0,VALID,23.4848,VALID,124,VALID,0,
2012-02-22, 01:27:04,VALID,999.349,VALID,0,VALID,92.7075,VALID,0.104696,VALID,23.5043,VALID,124,VALID,0,
2012-02-22, 01:28:04,VALID,999.328,VALID,0,VALID,92.677,VALID,0,VALID,23.5043,VALID,124,VALID,0,
2012-02-22, 01:29:04,VALID,999.328,VALID,0,VALID,92.6388,VALID,0,VALID,23.5043,VALID,124,VALID,0,
2012-02-22, 01:30:04,VALID,999.331,VALID,0,VALID,92.6465,VALID,0.104696,VALID,23.5238,VALID,124,VALID,0,
2012-02-22, 01:31:04,VALID,999.339,VALID,0,VALID,92.677,VALID,0,VALID,23.5043,VALID,124,VALID,0,
2012-02-22, 01:32:04,VALID,999.348,VALID,0,VALID,92.6999,VALID,0,VALID,23.5451,VALID,124,VALID,0,
2012-02-22, 01:33:04,VALID,999.305,VALID,0,VALID,92.738,VALID,0,VALID,23.5433,VALID,124,VALID,0,
2012-02-22, 01:34:04,VALID,999.328,VALID,0,VALID,92.8372,VALID,0,VALID,23.5646,VALID,123,VALID,0,
2012-02-22, 01:35:04,VALID,999.321,VALID,0,VALID,92.8983,VALID,0,VALID,23.5628,VALID,117,VALID,0,
2012-02-22, 01:36:04,VALID,999.257,VALID,0,VALID,92.9364,VALID,0,VALID,23.5823,VALID,117,VALID,0,
2012-02-22, 01:37:04,VALID,999.272,VALID,0,VALID,92.9517,VALID,0,VALID,23.5823,VALID,117,VALID,0,
2012-02-22, 01:38:04,VALID,999.23,VALID,0,VALID,92.9517,VALID,0,VALID,23.5823,VALID,117,VALID,0,
2012-02-22, 01:39:04,VALID,999.224,VALID,0,VALID,92.9974,VALID,0,VALID,23.5823,VALID,117,VALID,0,
2012-02-22, 01:40:04,VALID,999.181,VALID,0,VALID,93.0127,VALID,0,VALID,23.6036,VALID,117,VALID,0,
2012-02-22, 01:41:04,VALID,999.197,VALID,0,VALID,93.0051,VALID,0,VALID,23.6019,VALID,117,VALID,0,
2012-02-22, 01:42:04,VALID,999.212,VALID,0,VALID,93.0127,VALID,0,VALID,23.5823,VALID,117,VALID,0,
2012-02-22, 01:43:04,VALID,999.206,VALID,0,VALID,93.0356,VALID,0,VALID,23.6036,VALID,117,VALID,0,
2012-02-22, 01:44:04,VALID,999.206,VALID,0,VALID,93.1043,VALID,0,VALID,23.6036,VALID,64,VALID,0,
2012-02-22, 01:45:04,VALID,999.171,VALID,0,VALID,93.1958,VALID,0,VALID,23.5823,VALID,56,VALID,0,
2012-02-22, 01:46:04,VALID,999.191,VALID,0,VALID,93.2645,VALID,0,VALID,23.6036,VALID,52,VALID,0,
2012-02-22, 01:47:04,VALID,999.183,VALID,0,VALID,93.3331,VALID,0,VALID,23.5823,VALID,52,VALID,0,
2012-02-22, 01:48:04,VALID,999.193,VALID,0,VALID,93.3713,VALID,0.104696,VALID,23.5628,VALID,52,VALID,0,
2012-02-22, 01:49:04,VALID,999.17,VALID,0,VALID,93.356,VALID,0,VALID,23.5841,VALID,52,VALID,0,
2012-02-22, 01:50:04,VALID,999.18,VALID,0,VALID,93.356,VALID,0,VALID,23.5628,VALID,52,VALID,0,
2012-02-22, 01:51:04,VALID,999.161,VALID,0,VALID,93.3789,VALID,0,VALID,23.5823,VALID,52,VALID,0,
2012-02-22, 01:52:04,VALID,999.165,VALID,0,VALID,93.3789,VALID,0,VALID,23.5628,VALID,52,VALID,0,
2012-02-22, 01:53:04,VALID,999.142,VALID,0,VALID,93.3789,VALID,0,VALID,23.5628,VALID,52,VALID,0,
2012-02-22, 01:54:04,VALID,999.175,VALID,0,VALID,93.3866,VALID,0,VALID,23.5646,VALID,52,VALID,0,
2012-02-22, 01:55:04,VALID,999.142,VALID,0,VALID,93.4476,VALID,0.104696,VALID,23.5433,VALID,52,VALID,0,
2012-02-22, 01:56:04,VALID,999.19,VALID,0,VALID,93.4781,VALID,0,VALID,23.5433,VALID,52,VALID,0,
2012-02-22, 01:57:04,VALID,999.214,VALID,0,VALID,93.4857,VALID,0,VALID,23.5433,VALID,52,VALID,0,
2012-02-22, 01:58:04,VALID,999.22,VALID,0,VALID,93.501,VALID,0,VALID,23.5433,VALID,74,VALID,0,
2012-02-22, 01:59:04,VALID,999.228,VALID,0,VALID,93.4857,VALID,0,VALID,23.5433,VALID,74,VALID,0,
2012-02-22, 02:00:04,VALID,999.238,VALID,0,VALID,93.4552,VALID,0,VALID,23.5451,VALID,74,VALID,0,
2012-02-22, 02:01:04,VALID,999.218,VALID,0,VALID,93.44,VALID,0,VALID,23.5043,VALID,74,VALID,0,
2012-02-22, 02:02:04,VALID,999.225,VALID,0,VALID,93.4247,VALID,0,VALID,23.5043,VALID,74,VALID,0,
2012-02-22, 02:03:04,VALID,999.211,VALID,0,VALID,93.4628,VALID,0,VALID,23.4848,VALID,74,VALID,0,
2012-02-22, 02:04:04,VALID,999.253,VALID,0,VALID,93.4552,VALID,0.104696,VALID,23.4848,VALID,74,VALID,0,
2012-02-22, 02:05:04,VALID,999.251,VALID,0,VALID,93.4552,VALID,0,VALID,23.4848,VALID,74,VALID,0,
2012-02-22, 02:06:04,VALID,999.249,VALID,0,VALID,93.5163,VALID,0,VALID,23.4848,VALID,74,VALID,0,
2012-02-22, 02:07:04,VALID,999.262,VALID,0,VALID,93.501,VALID,0,VALID,23.4866,VALID,74,VALID,0,
2012-02-22, 02:08:04,VALID,999.262,VALID,0,VALID,93.5086,VALID,0,VALID,23.4653,VALID,74,VALID,0,
2012-02-22, 02:09:04,VALID,999.255,VALID,0,VALID,93.5773,VALID,0,VALID,23.4653,VALID,74,VALID,0,
2012-02-22, 02:10:04,VALID,999.247,VALID,0,VALID,93.6078,VALID,0,VALID,23.4653,VALID,74,VALID,0,
2012-02-22, 02:11:04,VALID,999.222,VALID,0,VALID,93.6688,VALID,0,VALID,23.4653,VALID,74,VALID,0,
2012-02-22, 02:12:04,VALID,999.215,VALID,0,VALID,93.6612,VALID,0,VALID,23.4866,VALID,74,VALID,0,
2012-02-22, 02:13:04,VALID,999.222,VALID,0,VALID,93.6383,VALID,0,VALID,23.4653,VALID,74,VALID,0,
2012-02-22, 02:14:04,VALID,999.219,VALID,0,VALID,93.6231,VALID,0,VALID,23.4458,VALID,74,VALID,0,
2012-02-22, 02:15:04,VALID,999.221,VALID,0,VALID,93.6383,VALID,0,VALID,23.4458,VALID,74,VALID,0,
2012-02-22, 02:16:04,VALID,999.205,VALID,0,VALID,93.646,VALID,0,VALID,23.4263,VALID,74,VALID,0,
2012-02-22, 02:17:04,VALID,999.224,VALID,0,VALID,93.5926,VALID,0,VALID,23.4263,VALID,74,VALID,0,
2012-02-22, 02:18:04,VALID,999.233,VALID,0,VALID,93.6078,VALID,0,VALID,23.4263,VALID,74,VALID,0,
2012-02-22, 02:19:04,VALID,999.216,VALID,0,VALID,93.646,VALID,0,VALID,23.4067,VALID,74,VALID,0,
2012-02-22, 02:20:04,VALID,999.224,VALID,0,VALID,93.7375,VALID,0,VALID,23.428,VALID,74,VALID,0,
2012-02-22, 02:21:04,VALID,999.228,VALID,0,VALID,93.7833,VALID,0,VALID,23.4475,VALID,74,VALID,0,
2012-02-22, 02:22:04,VALID,999.218,VALID,0,VALID,93.8062,VALID,0,VALID,23.4458,VALID,74,VALID,0,
2012-02-22, 02:23:04,VALID,999.252,VALID,0,VALID,93.8138,VALID,0,VALID,23.4671,VALID,75,VALID,0,
2012-02-22, 02:24:04,VALID,999.269,VALID,0,VALID,93.7985,VALID,0,VALID,23.4866,VALID,74,VALID,0,
2012-02-22, 02:25:04,VALID,999.274,VALID,0,VALID,93.7985,VALID,0,VALID,23.4653,VALID,74,VALID,0,
2012-02-22, 02:26:04,VALID,999.3,VALID,0,VALID,93.7528,VALID,0,VALID,23.4866,VALID,74,VALID,0,
2012-02-22, 02:27:04,VALID,999.286,VALID,0,VALID,93.6994,VALID,0,VALID,23.4671,VALID,74,VALID,0,
2012-02-22, 02:28:04,VALID,999.284,VALID,0,VALID,93.6536,VALID,0,VALID,23.4458,VALID,74,VALID,0,
2012-02-22, 02:29:04,VALID,999.308,VALID,0,VALID,93.6154,VALID,0,VALID,23.4263,VALID,74,VALID,0,
2012-02-22, 02:30:04,VALID,999.288,VALID,0,VALID,93.5849,VALID,0,VALID,23.4067,VALID,74,VALID,0,
2012-02-22, 02:31:04,VALID,999.327,VALID,0,VALID,93.5926,VALID,0,VALID,23.3872,VALID,74,VALID,0,
2012-02-22, 02:32:04,VALID,999.309,VALID,0,VALID,93.5926,VALID,0,VALID,23.4085,VALID,74,VALID,0,
2012-02-22, 02:33:04,VALID,999.331,VALID,0,VALID,93.6078,VALID,0,VALID,23.389,VALID,75,VALID,0,
2012-02-22, 02:34:04,VALID,999.348,VALID,0,VALID,93.6536,VALID,0,VALID,23.389,VALID,75,VALID,0,
2012-02-22, 02:35:04,VALID,999.328,VALID,0,VALID,93.6688,VALID,0,VALID,23.3482,VALID,75,VALID,0,
2012-02-22, 02:36:04,VALID,999.323,VALID,0,VALID,93.6688,VALID,0,VALID,23.3695,VALID,75,VALID,0,
2012-02-22, 02:37:05,VALID,999.301,VALID,0,VALID,93.7223,VALID,0,VALID,23.35,VALID,75,VALID,0,
2012-02-22, 02:38:05,VALID,999.313,VALID,0,VALID,93.7528,VALID,0,VALID,23.3287,VALID,75,VALID,0,
2012-02-22, 02:39:05,VALID,999.315,VALID,0,VALID,93.7451,VALID,0,VALID,23.35,VALID,75,VALID,0,
2012-02-22, 02:40:05,VALID,999.298,VALID,0,VALID,93.7833,VALID,0,VALID,23.3287,VALID,75,VALID,0,
2012-02-22, 02:41:05,VALID,999.296,VALID,0,VALID,93.7985,VALID,0,VALID,23.3287,VALID,75,VALID,0,
2012-02-22, 02:42:05,VALID,999.296,VALID,0,VALID,93.8138,VALID,0,VALID,23.3092,VALID,75,VALID,0,
2012-02-22, 02:43:05,VALID,999.286,VALID,0,VALID,93.8062,VALID,0,VALID,23.3305,VALID,75,VALID,0,
2012-02-22, 02:44:05,VALID,999.274,VALID,0,VALID,93.7833,VALID,0,VALID,23.3092,VALID,65,VALID,0,
2012-02-22, 02:45:05,VALID,999.26,VALID,0,VALID,93.7604,VALID,0,VALID,23.3305,VALID,65,VALID,0,
2012-02-22, 02:46:05,VALID,999.277,VALID,0,VALID,93.7451,VALID,0,VALID,23.3305,VALID,65,VALID,0,
2012-02-22, 02:47:05,VALID,999.268,VALID,0,VALID,93.6688,VALID,0,VALID,23.311,VALID,65,VALID,0,
2012-02-22, 02:48:05,VALID,999.234,VALID,0,VALID,93.5849,VALID,0,VALID,23.2507,VALID,65,VALID,0,
2012-02-22, 02:49:05,VALID,999.233,VALID,0,VALID,93.501,VALID,0,VALID,23.2507,VALID,65,VALID,0,
2012-02-22, 02:50:05,VALID,999.233,VALID,0,VALID,93.4628,VALID,0,VALID,23.2524,VALID,65,VALID,0,
2012-02-22, 02:51:05,VALID,999.207,VALID,0,VALID,93.4323,VALID,0,VALID,23.2117,VALID,105,VALID,0.249609,
2012-02-22, 02:52:05,VALID,999.201,VALID,0,VALID,93.4018,VALID,0,VALID,23.2117,VALID,106,VALID,0.863672,
2012-02-22, 02:53:05,VALID,999.181,VALID,0,VALID,93.4171,VALID,0,VALID,23.2134,VALID,113,VALID,1.00117,
2012-02-22, 02:54:05,VALID,999.169,VALID,0,VALID,93.4323,VALID,0,VALID,23.2134,VALID,118,VALID,0.678516,
2012-02-22, 02:55:05,VALID,999.163,VALID,0,VALID,93.4171,VALID,0,VALID,23.1939,VALID,118,VALID,0.605078,
2012-02-22, 02:56:05,VALID,999.138,VALID,0,VALID,93.4094,VALID,0,VALID,23.1939,VALID,128,VALID,0.816406,
2012-02-22, 02:57:05,VALID,999.158,VALID,0,VALID,93.44,VALID,0,VALID,23.1726,VALID,128,VALID,0.532422,
2012-02-22, 02:58:05,VALID,999.151,VALID,0,VALID,93.4247,VALID,0,VALID,23.1531,VALID,126,VALID,0.764063,
2012-02-22, 02:59:05,VALID,999.165,VALID,0,VALID,93.4705,VALID,0,VALID,23.1744,VALID,121,VALID,0.602344,
2012-02-22, 03:00:05,VALID,999.156,VALID,0,VALID,93.5163,VALID,0,VALID,23.1744,VALID,121,VALID,0.603906,
2012-02-22, 03:01:05,VALID,999.235,VALID,0,VALID,93.5239,VALID,0,VALID,23.1744,VALID,118,VALID,0.594922,
2012-02-22, 03:02:05,VALID,999.22,VALID,0,VALID,93.5163,VALID,0,VALID,23.1744,VALID,118,VALID,0.541797,
2012-02-22, 03:03:05,VALID,999.252,VALID,0,VALID,93.5391,VALID,0,VALID,23.1549,VALID,118,VALID,0.709375,
2012-02-22, 03:04:05,VALID,999.27,VALID,0,VALID,93.562,VALID,0,VALID,23.1549,VALID,118,VALID,0.339063,
2012-02-22, 03:05:05,VALID,999.248,VALID,0,VALID,93.5468,VALID,0,VALID,23.1531,VALID,119,VALID,0.436719,
2012-02-22, 03:06:05,VALID,999.268,VALID,0,VALID,93.5315,VALID,0,VALID,23.1549,VALID,119,VALID,0.0410156,
2012-02-22, 03:07:05,VALID,999.243,VALID,0,VALID,93.5315,VALID,0,VALID,23.1336,VALID,119,VALID,0,
2012-02-22, 03:08:05,VALID,999.198,VALID,0,VALID,93.501,VALID,0,VALID,23.1354,VALID,119,VALID,0,
2012-02-22, 03:09:05,VALID,999.204,VALID,0,VALID,93.501,VALID,0,VALID,23.1354,VALID,135,VALID,0.606641,
2012-02-22, 03:10:05,VALID,999.169,VALID,0,VALID,93.5315,VALID,0,VALID,23.1159,VALID,136,VALID,0.529297,
2012-02-22, 03:11:05,VALID,999.169,VALID,0,VALID,93.5086,VALID,0,VALID,23.1159,VALID,135,VALID,0.654688,
2012-02-22, 03:12:05,VALID,999.17,VALID,0,VALID,93.5163,VALID,0,VALID,23.0964,VALID,135,VALID,0.669531,
2012-02-22, 03:13:05,VALID,999.15,VALID,0,VALID,93.5391,VALID,0,VALID,23.0964,VALID,123,VALID,0.818359,
2012-02-22, 03:14:05,VALID,999.117,VALID,0,VALID,93.562,VALID,0,VALID,23.1159,VALID,124,VALID,0.289063,
2012-02-22, 03:15:05,VALID,999.158,VALID,0,VALID,93.5697,VALID,0,VALID,23.0964,VALID,124,VALID,0.103125,
2012-02-22, 03:16:05,VALID,999.147,VALID,0,VALID,93.5544,VALID,0,VALID,23.0964,VALID,124,VALID,0.392188,
2012-02-22, 03:17:05,VALID,999.152,VALID,0,VALID,93.5468,VALID,0,VALID,23.0751,VALID,123,VALID,0.542188,
2012-02-22, 03:18:05,VALID,999.128,VALID,0,VALID,93.5926,VALID,0,VALID,23.0964,VALID,115,VALID,0.825,
2012-02-22, 03:19:05,VALID,999.126,VALID,0,VALID,93.5926,VALID,0,VALID,23.0964,VALID,143,VALID,0.3625,
2012-02-22, 03:20:05,VALID,999.122,VALID,0,VALID,93.6078,VALID,0,VALID,23.0946,VALID,124,VALID,1.04375,
2012-02-22, 03:21:05,VALID,999.08,VALID,0,VALID,93.5926,VALID,0,VALID,23.1159,VALID,121,VALID,0.865234,
2012-02-22, 03:22:05,VALID,999.103,VALID,0,VALID,93.562,VALID,0,VALID,23.1354,VALID,123,VALID,0.736328,
2012-02-22, 03:23:05,VALID,999.088,VALID,0,VALID,93.5544,VALID,0,VALID,23.1336,VALID,116,VALID,0.560938,
2012-02-22, 03:24:05,VALID,999.063,VALID,0,VALID,93.5163,VALID,0,VALID,23.1141,VALID,116,VALID,0.164063,
2012-02-22, 03:25:05,VALID,999.029,VALID,0,VALID,93.4857,VALID,0,VALID,23.1354,VALID,115,VALID,0.263281,
2012-02-22, 03:26:05,VALID,999.021,VALID,0,VALID,93.4781,VALID,0,VALID,23.1354,VALID,103,VALID,0.463281,
2012-02-22, 03:27:05,VALID,999.025,VALID,0,VALID,93.4552,VALID,0,VALID,23.1354,VALID,103,VALID,0.113672,
2012-02-22, 03:28:05,VALID,999.021,VALID,0,VALID,93.4476,VALID,0,VALID,23.1159,VALID,103,VALID,0.327734,
2012-02-22, 03:29:05,VALID,998.998,VALID,0,VALID,93.4247,VALID,0,VALID,23.1354,VALID,87,VALID,0.542578,
2012-02-22, 03:30:05,VALID,999.032,VALID,0,VALID,93.4628,VALID,0,VALID,23.1159,VALID,68,VALID,0.51875,
2012-02-22, 03:31:05,VALID,999.044,VALID,0,VALID,93.4934,VALID,0,VALID,23.1159,VALID,25,VALID,0.634766,
2012-02-22, 03:32:05,VALID,999.036,VALID,0,VALID,93.5086,VALID,0,VALID,23.1354,VALID,12,VALID,0.574219,
2012-02-22, 03:33:05,VALID,999.039,VALID,0,VALID,93.5468,VALID,0,VALID,23.0964,VALID,12,VALID,0.549219,
2012-02-22, 03:34:05,VALID,999.04,VALID,0,VALID,93.5697,VALID,0,VALID,23.1159,VALID,356,VALID,0.679297,
2012-02-22, 03:35:05,VALID,999.009,VALID,0,VALID,93.5697,VALID,0,VALID,23.1159,VALID,342,VALID,0.674219,
2012-02-22, 03:36:05,VALID,999.006,VALID,0,VALID,93.5926,VALID,0,VALID,23.0964,VALID,342,VALID,0.570703,
2012-02-22, 03:37:05,VALID,999.023,VALID,0,VALID,93.6002,VALID,0,VALID,23.0946,VALID,342,VALID,0.602344,
2012-02-22, 03:38:05,VALID,999.008,VALID,0,VALID,93.6078,VALID,0,VALID,23.1159,VALID,342,VALID,0.338672,
2012-02-22, 03:39:05,VALID,999.028,VALID,0,VALID,93.5773,VALID,0,VALID,23.1354,VALID,342,VALID,0.539453,
2012-02-22, 03:40:05,VALID,998.982,VALID,0,VALID,93.562,VALID,0,VALID,23.1354,VALID,342,VALID,0.864844,
2012-02-22, 03:41:05,VALID,998.991,VALID,0,VALID,93.5773,VALID,0,VALID,23.1549,VALID,342,VALID,0.896094,
2012-02-22, 03:42:05,VALID,998.976,VALID,0,VALID,93.6536,VALID,0,VALID,23.1744,VALID,342,VALID,0.781641,
2012-02-22, 03:43:05,VALID,998.97,VALID,0,VALID,93.6917,VALID,0,VALID,23.1744,VALID,342,VALID,0.807813,
2012-02-22, 03:44:05,VALID,998.973,VALID,0,VALID,93.7223,VALID,0,VALID,23.1549,VALID,332,VALID,0.7625,
2012-02-22, 03:45:05,VALID,998.994,VALID,0,VALID,93.768,VALID,0,VALID,23.1744,VALID,319,VALID,0.484766,
2012-02-22, 03:46:05,VALID,998.996,VALID,0,VALID,93.7757,VALID,0,VALID,23.1744,VALID,307,VALID,0.728125,
2012-02-22, 03:47:05,VALID,998.969,VALID,0,VALID,93.8062,VALID,0,VALID,23.1549,VALID,307,VALID,0,
2012-02-22, 03:48:05,VALID,999,VALID,0,VALID,93.8138,VALID,0,VALID,23.1744,VALID,307,VALID,0,
2012-02-22, 03:49:05,VALID,998.971,VALID,0,VALID,93.8062,VALID,0,VALID,23.1744,VALID,307,VALID,0,
2012-02-22, 03:50:05,VALID,998.961,VALID,0,VALID,93.7909,VALID,0,VALID,23.1744,VALID,307,VALID,0,
2012-02-22, 03:51:05,VALID,998.983,VALID,0,VALID,93.7985,VALID,0,VALID,23.1549,VALID,307,VALID,0,
2012-02-22, 03:52:05,VALID,998.964,VALID,0,VALID,93.8062,VALID,0,VALID,23.1549,VALID,307,VALID,0,
2012-02-22, 03:53:05,VALID,998.985,VALID,0,VALID,93.7909,VALID,0,VALID,23.1354,VALID,307,VALID,0,